Year,Month,Day,Hour,Minute,Value (Times are PST for windspeed in km/hr)
2021,07,04,00,00,0.00
2021,07,04,00,01,0.00
2021,07,04,00,02,0.00
2021,07,04,00,03,0.00
2021,07,04,00,04,0.00
2021,07,04,00,05,0.00
2021,07,04,00,06,0.00
2021,07,04,00,07,0.00
2021,07,04,00,08,0.00
2021,07,04,00,09,0.00
2021,07,04,00,10,0.00
2021,07,04,00,11,0.00
2021,07,04,00,12,0.00
2021,07,04,00,13,0.00
2021,07,04,00,14,0.00
2021,07,04,00,15,0.00
2021,07,04,00,16,0.00
2021,07,04,00,17,0.00
2021,07,04,00,18,0.00
2021,07,04,00,19,0.00
2021,07,04,00,20,0.00
2021,07,04,00,21,0.00
2021,07,04,00,22,0.00
2021,07,04,00,23,0.00
2021,07,04,00,24,0.00
2021,07,04,00,25,0.00
2021,07,04,00,26,0.00
2021,07,04,00,27,0.00
2021,07,04,00,28,0.00
2021,07,04,00,29,0.00
2021,07,04,00,30,0.00
2021,07,04,00,31,0.00
2021,07,04,00,32,0.00
2021,07,04,00,33,0.00
2021,07,04,00,34,0.00
2021,07,04,00,35,0.00
2021,07,04,00,36,0.00
2021,07,04,00,37,0.00
2021,07,04,00,38,0.00
2021,07,04,00,39,0.00
2021,07,04,00,40,0.00
2021,07,04,00,41,0.00
2021,07,04,00,42,0.00
2021,07,04,00,43,0.00
2021,07,04,00,44,0.00
2021,07,04,00,45,0.00
2021,07,04,00,46,0.00
2021,07,04,00,47,0.00
2021,07,04,00,48,0.00
2021,07,04,00,49,0.00
2021,07,04,00,50,0.00
2021,07,04,00,51,0.00
2021,07,04,00,52,0.00
2021,07,04,00,53,0.00
2021,07,04,00,54,0.00
2021,07,04,00,55,0.00
2021,07,04,00,56,0.00
2021,07,04,00,57,0.00
2021,07,04,00,58,0.00
2021,07,04,00,59,0.00
2021,07,04,01,00,0.00
2021,07,04,01,01,0.00
2021,07,04,01,02,0.00
2021,07,04,01,03,0.00
2021,07,04,01,04,0.00
2021,07,04,01,05,0.00
2021,07,04,01,06,0.00
2021,07,04,01,07,0.00
2021,07,04,01,08,0.00
2021,07,04,01,09,0.00
2021,07,04,01,10,0.00
2021,07,04,01,11,0.00
2021,07,04,01,12,0.00
2021,07,04,01,13,0.00
2021,07,04,01,14,0.00
2021,07,04,01,15,0.00
2021,07,04,01,16,0.00
2021,07,04,01,17,0.00
2021,07,04,01,18,0.00
2021,07,04,01,19,0.00
2021,07,04,01,20,0.00
2021,07,04,01,21,0.00
2021,07,04,01,22,0.00
2021,07,04,01,23,0.00
2021,07,04,01,24,0.00
2021,07,04,01,25,0.00
2021,07,04,01,26,0.00
2021,07,04,01,27,0.00
2021,07,04,01,28,0.00
2021,07,04,01,29,0.00
2021,07,04,01,30,0.00
2021,07,04,01,31,0.00
2021,07,04,01,32,0.00
2021,07,04,01,33,0.00
2021,07,04,01,34,0.00
2021,07,04,01,35,0.00
2021,07,04,01,36,0.00
2021,07,04,01,37,0.00
2021,07,04,01,38,0.00
2021,07,04,01,39,0.00
2021,07,04,01,40,0.00
2021,07,04,01,41,0.00
2021,07,04,01,42,0.00
2021,07,04,01,43,0.00
2021,07,04,01,44,0.00
2021,07,04,01,45,0.00
2021,07,04,01,46,0.00
2021,07,04,01,47,0.00
2021,07,04,01,48,0.00
2021,07,04,01,49,0.00
2021,07,04,01,50,0.00
2021,07,04,01,51,0.00
2021,07,04,01,52,0.00
2021,07,04,01,53,0.00
2021,07,04,01,54,0.00
2021,07,04,01,55,0.00
2021,07,04,01,56,0.00
2021,07,04,01,57,0.00
2021,07,04,01,58,0.00
2021,07,04,01,59,0.00
2021,07,04,02,00,0.00
2021,07,04,02,01,0.00
2021,07,04,02,02,0.00
2021,07,04,02,03,0.00
2021,07,04,02,04,0.00
2021,07,04,02,05,0.00
2021,07,04,02,06,0.00
2021,07,04,02,07,0.00
2021,07,04,02,08,0.00
2021,07,04,02,09,0.00
2021,07,04,02,10,0.00
2021,07,04,02,11,0.00
2021,07,04,02,12,0.00
2021,07,04,02,13,0.00
2021,07,04,02,14,0.00
2021,07,04,02,15,0.00
2021,07,04,02,16,0.00
2021,07,04,02,17,0.00
2021,07,04,02,18,0.00
2021,07,04,02,19,0.00
2021,07,04,02,20,0.00
2021,07,04,02,21,0.00
2021,07,04,02,22,0.00
2021,07,04,02,23,0.00
2021,07,04,02,24,0.00
2021,07,04,02,25,0.00
2021,07,04,02,26,0.00
2021,07,04,02,27,0.00
2021,07,04,02,28,0.00
2021,07,04,02,29,0.00
2021,07,04,02,30,0.00
2021,07,04,02,31,0.00
2021,07,04,02,32,0.00
2021,07,04,02,33,0.00
2021,07,04,02,34,0.00
2021,07,04,02,35,0.00
2021,07,04,02,36,0.00
2021,07,04,02,37,0.00
2021,07,04,02,38,0.00
2021,07,04,02,39,0.00
2021,07,04,02,40,0.00
2021,07,04,02,41,0.00
2021,07,04,02,42,0.00
2021,07,04,02,43,0.00
2021,07,04,02,44,0.00
2021,07,04,02,45,0.00
2021,07,04,02,46,0.00
2021,07,04,02,47,0.00
2021,07,04,02,48,0.00
2021,07,04,02,49,0.00
2021,07,04,02,50,0.00
2021,07,04,02,51,0.00
2021,07,04,02,52,0.00
2021,07,04,02,53,0.00
2021,07,04,02,54,0.00
2021,07,04,02,55,0.00
2021,07,04,02,56,0.00
2021,07,04,02,57,0.00
2021,07,04,02,58,0.00
2021,07,04,02,59,0.00
2021,07,04,03,00,0.00
2021,07,04,03,01,0.00
2021,07,04,03,02,0.00
2021,07,04,03,03,0.00
2021,07,04,03,04,0.00
2021,07,04,03,05,0.00
2021,07,04,03,06,0.00
2021,07,04,03,07,0.00
2021,07,04,03,08,0.00
2021,07,04,03,09,0.00
2021,07,04,03,10,0.00
2021,07,04,03,11,0.00
2021,07,04,03,12,0.00
2021,07,04,03,13,0.00
2021,07,04,03,14,0.00
2021,07,04,03,15,0.00
2021,07,04,03,16,0.00
2021,07,04,03,17,0.00
2021,07,04,03,18,0.00
2021,07,04,03,19,0.00
2021,07,04,03,20,0.00
2021,07,04,03,21,0.00
2021,07,04,03,22,0.00
2021,07,04,03,23,0.00
2021,07,04,03,24,0.00
2021,07,04,03,25,0.00
2021,07,04,03,26,0.00
2021,07,04,03,27,0.00
2021,07,04,03,28,0.00
2021,07,04,03,29,0.00
2021,07,04,03,30,0.00
2021,07,04,03,31,0.00
2021,07,04,03,32,0.00
2021,07,04,03,33,0.00
2021,07,04,03,34,0.00
2021,07,04,03,35,0.00
2021,07,04,03,36,0.00
2021,07,04,03,37,0.00
2021,07,04,03,38,0.00
2021,07,04,03,39,0.00
2021,07,04,03,40,0.00
2021,07,04,03,41,0.00
2021,07,04,03,42,0.00
2021,07,04,03,43,0.00
2021,07,04,03,44,0.00
2021,07,04,03,45,0.00
2021,07,04,03,46,0.00
2021,07,04,03,47,0.00
2021,07,04,03,48,0.00
2021,07,04,03,49,0.00
2021,07,04,03,50,0.00
2021,07,04,03,51,0.00
2021,07,04,03,52,0.00
2021,07,04,03,53,0.00
2021,07,04,03,54,0.00
2021,07,04,03,55,0.00
2021,07,04,03,56,0.00
2021,07,04,03,57,0.00
2021,07,04,03,58,0.00
2021,07,04,03,59,0.00
2021,07,04,04,00,0.00
2021,07,04,04,01,0.00
2021,07,04,04,02,0.00
2021,07,04,04,03,0.00
2021,07,04,04,04,0.00
2021,07,04,04,05,0.00
2021,07,04,04,06,0.00
2021,07,04,04,07,0.00
2021,07,04,04,08,0.00
2021,07,04,04,09,0.00
2021,07,04,04,10,0.00
2021,07,04,04,11,0.00
2021,07,04,04,12,0.00
2021,07,04,04,13,0.00
2021,07,04,04,14,0.00
2021,07,04,04,15,0.00
2021,07,04,04,16,0.00
2021,07,04,04,17,0.00
2021,07,04,04,18,0.00
2021,07,04,04,19,0.00
2021,07,04,04,20,0.00
2021,07,04,04,21,0.00
2021,07,04,04,22,0.00
2021,07,04,04,23,0.00
2021,07,04,04,24,0.00
2021,07,04,04,25,0.00
2021,07,04,04,26,0.00
2021,07,04,04,27,0.00
2021,07,04,04,28,0.00
2021,07,04,04,29,0.00
2021,07,04,04,30,0.00
2021,07,04,04,31,0.00
2021,07,04,04,32,0.00
2021,07,04,04,33,0.00
2021,07,04,04,34,0.00
2021,07,04,04,35,0.00
2021,07,04,04,36,0.00
2021,07,04,04,37,0.00
2021,07,04,04,38,0.00
2021,07,04,04,39,0.00
2021,07,04,04,40,0.00
2021,07,04,04,41,0.00
2021,07,04,04,42,0.00
2021,07,04,04,43,0.00
2021,07,04,04,44,0.00
2021,07,04,04,45,0.00
2021,07,04,04,46,0.00
2021,07,04,04,47,0.00
2021,07,04,04,48,0.00
2021,07,04,04,49,0.00
2021,07,04,04,50,0.00
2021,07,04,04,51,0.00
2021,07,04,04,52,0.00
2021,07,04,04,53,0.00
2021,07,04,04,54,0.00
2021,07,04,04,55,0.00
2021,07,04,04,56,0.00
2021,07,04,04,57,0.00
2021,07,04,04,58,0.00
2021,07,04,04,59,0.00
2021,07,04,05,00,0.00
2021,07,04,05,01,0.00
2021,07,04,05,02,0.00
2021,07,04,05,03,0.00
2021,07,04,05,04,0.00
2021,07,04,05,05,0.00
2021,07,04,05,06,0.00
2021,07,04,05,07,0.00
2021,07,04,05,08,0.00
2021,07,04,05,09,0.00
2021,07,04,05,10,0.00
2021,07,04,05,11,0.00
2021,07,04,05,12,0.00
2021,07,04,05,13,0.00
2021,07,04,05,14,0.00
2021,07,04,05,15,0.00
2021,07,04,05,16,0.00
2021,07,04,05,17,0.00
2021,07,04,05,18,0.00
2021,07,04,05,19,0.00
2021,07,04,05,20,0.00
2021,07,04,05,21,0.00
2021,07,04,05,22,0.00
2021,07,04,05,23,0.00
2021,07,04,05,24,0.00
2021,07,04,05,25,0.00
2021,07,04,05,26,0.00
2021,07,04,05,27,0.00
2021,07,04,05,28,0.00
2021,07,04,05,29,0.00
2021,07,04,05,30,0.00
2021,07,04,05,31,0.00
2021,07,04,05,32,0.00
2021,07,04,05,33,0.00
2021,07,04,05,34,0.00
2021,07,04,05,35,0.00
2021,07,04,05,36,0.00
2021,07,04,05,37,0.00
2021,07,04,05,38,0.00
2021,07,04,05,39,0.00
2021,07,04,05,40,0.00
2021,07,04,05,41,0.00
2021,07,04,05,42,0.00
2021,07,04,05,43,0.00
2021,07,04,05,44,0.00
2021,07,04,05,45,0.00
2021,07,04,05,46,0.00
2021,07,04,05,47,0.00
2021,07,04,05,48,0.00
2021,07,04,05,49,0.00
2021,07,04,05,50,0.00
2021,07,04,05,51,0.00
2021,07,04,05,52,0.00
2021,07,04,05,53,0.00
2021,07,04,05,54,0.00
2021,07,04,05,55,0.00
2021,07,04,05,56,0.00
2021,07,04,05,57,0.00
2021,07,04,05,58,0.00
2021,07,04,05,59,0.00
2021,07,04,06,00,0.00
2021,07,04,06,01,0.00
2021,07,04,06,02,0.00
2021,07,04,06,03,0.00
2021,07,04,06,04,0.00
2021,07,04,06,05,0.00
2021,07,04,06,06,0.00
2021,07,04,06,07,0.00
2021,07,04,06,08,0.00
2021,07,04,06,09,0.00
2021,07,04,06,10,0.00
2021,07,04,06,11,0.00
2021,07,04,06,12,0.00
2021,07,04,06,13,0.00
2021,07,04,06,14,0.00
2021,07,04,06,15,0.00
2021,07,04,06,16,0.00
2021,07,04,06,17,0.00
2021,07,04,06,18,0.00
2021,07,04,06,19,0.00
2021,07,04,06,20,0.00
2021,07,04,06,21,0.00
2021,07,04,06,22,0.00
2021,07,04,06,23,0.00
2021,07,04,06,24,0.00
2021,07,04,06,25,0.00
2021,07,04,06,26,0.00
2021,07,04,06,27,0.00
2021,07,04,06,28,0.00
2021,07,04,06,29,0.00
2021,07,04,06,30,0.00
2021,07,04,06,31,0.00
2021,07,04,06,32,0.00
2021,07,04,06,33,0.00
2021,07,04,06,34,0.00
2021,07,04,06,35,0.00
2021,07,04,06,36,0.00
2021,07,04,06,37,0.00
2021,07,04,06,38,0.00
2021,07,04,06,39,0.00
2021,07,04,06,40,0.00
2021,07,04,06,41,0.00
2021,07,04,06,42,0.00
2021,07,04,06,43,0.00
2021,07,04,06,44,0.00
2021,07,04,06,45,0.00
2021,07,04,06,46,0.00
2021,07,04,06,47,0.00
2021,07,04,06,48,0.00
2021,07,04,06,49,0.00
2021,07,04,06,50,0.00
2021,07,04,06,51,0.00
2021,07,04,06,52,0.00
2021,07,04,06,53,0.00
2021,07,04,06,54,0.00
2021,07,04,06,55,0.10
2021,07,04,06,56,0.00
2021,07,04,06,57,0.00
2021,07,04,06,58,0.00
2021,07,04,06,59,0.00
2021,07,04,07,00,0.00
2021,07,04,07,01,0.00
2021,07,04,07,02,0.00
2021,07,04,07,03,0.00
2021,07,04,07,04,0.00
2021,07,04,07,05,0.00
2021,07,04,07,06,0.00
2021,07,04,07,07,0.00
2021,07,04,07,08,0.00
2021,07,04,07,09,0.00
2021,07,04,07,10,0.10
2021,07,04,07,11,0.00
2021,07,04,07,12,1.60
2021,07,04,07,13,0.00
2021,07,04,07,14,0.50
2021,07,04,07,15,3.00
2021,07,04,07,16,0.10
2021,07,04,07,17,0.00
2021,07,04,07,18,3.40
2021,07,04,07,19,4.00
2021,07,04,07,20,4.60
2021,07,04,07,21,4.80
2021,07,04,07,22,1.60
2021,07,04,07,23,0.90
2021,07,04,07,24,2.60
2021,07,04,07,25,0.00
2021,07,04,07,26,1.90
2021,07,04,07,27,2.50
2021,07,04,07,28,0.40
2021,07,04,07,29,0.10
2021,07,04,07,30,0.40
2021,07,04,07,31,0.00
2021,07,04,07,32,1.90
2021,07,04,07,33,0.00
2021,07,04,07,34,0.10
2021,07,04,07,35,0.00
2021,07,04,07,36,0.10
2021,07,04,07,37,2.80
2021,07,04,07,38,4.80
2021,07,04,07,39,0.60
2021,07,04,07,40,3.00
2021,07,04,07,41,0.10
2021,07,04,07,42,0.80
2021,07,04,07,43,2.00
2021,07,04,07,44,1.80
2021,07,04,07,45,1.40
2021,07,04,07,46,0.00
2021,07,04,07,47,0.00
2021,07,04,07,48,1.20
2021,07,04,07,49,4.60
2021,07,04,07,50,0.00
2021,07,04,07,51,0.00
2021,07,04,07,52,0.00
2021,07,04,07,53,1.30
2021,07,04,07,54,3.00
2021,07,04,07,55,0.10
2021,07,04,07,56,1.30
2021,07,04,07,57,0.70
2021,07,04,07,58,0.00
2021,07,04,07,59,1.10
2021,07,04,08,00,1.60
2021,07,04,08,01,0.00
2021,07,04,08,02,1.40
2021,07,04,08,03,2.40
2021,07,04,08,04,3.40
2021,07,04,08,05,3.00
2021,07,04,08,06,3.20
2021,07,04,08,07,2.10
2021,07,04,08,08,0.00
2021,07,04,08,09,1.10
2021,07,04,08,10,0.00
2021,07,04,08,11,0.00
2021,07,04,08,12,0.00
2021,07,04,08,13,1.40
2021,07,04,08,14,4.60
2021,07,04,08,15,6.70
2021,07,04,08,16,6.90
2021,07,04,08,17,3.80
2021,07,04,08,18,6.00
2021,07,04,08,19,4.10
2021,07,04,08,20,2.20
2021,07,04,08,21,6.90
2021,07,04,08,22,3.20
2021,07,04,08,23,0.00
2021,07,04,08,24,0.60
2021,07,04,08,25,5.00
2021,07,04,08,26,3.40
2021,07,04,08,27,1.30
2021,07,04,08,28,3.20
2021,07,04,08,29,5.40
2021,07,04,08,30,0.10
2021,07,04,08,31,3.80
2021,07,04,08,32,6.10
2021,07,04,08,33,5.30
2021,07,04,08,34,6.30
2021,07,04,08,35,7.30
2021,07,04,08,36,7.70
2021,07,04,08,37,5.40
2021,07,04,08,38,4.90
2021,07,04,08,39,4.80
2021,07,04,08,40,1.10
2021,07,04,08,41,4.50
2021,07,04,08,42,4.80
2021,07,04,08,43,3.40
2021,07,04,08,44,4.20
2021,07,04,08,45,3.80
2021,07,04,08,46,6.00
2021,07,04,08,47,4.80
2021,07,04,08,48,6.10
2021,07,04,08,49,5.80
2021,07,04,08,50,5.30
2021,07,04,08,51,4.30
2021,07,04,08,52,5.80
2021,07,04,08,53,6.50
2021,07,04,08,54,2.50
2021,07,04,08,55,4.30
2021,07,04,08,56,5.40
2021,07,04,08,57,4.60
2021,07,04,08,58,2.80
2021,07,04,08,59,1.90
2021,07,04,09,00,2.90
2021,07,04,09,01,6.40
2021,07,04,09,02,4.90
2021,07,04,09,03,6.20
2021,07,04,09,04,5.20
2021,07,04,09,05,4.70
2021,07,04,09,06,4.30
2021,07,04,09,07,5.60
2021,07,04,09,08,0.80
2021,07,04,09,09,2.30
2021,07,04,09,10,0.10
2021,07,04,09,11,2.00
2021,07,04,09,12,2.00
2021,07,04,09,13,5.20
2021,07,04,09,14,3.40
2021,07,04,09,15,8.00
2021,07,04,09,16,1.60
2021,07,04,09,17,2.60
2021,07,04,09,18,0.00
2021,07,04,09,19,6.40
2021,07,04,09,20,9.60
2021,07,04,09,21,8.30
2021,07,04,09,22,6.10
2021,07,04,09,23,3.10
2021,07,04,09,24,5.70
2021,07,04,09,25,9.50
2021,07,04,09,26,10.10
2021,07,04,09,27,8.00
2021,07,04,09,28,9.80
2021,07,04,09,29,9.70
2021,07,04,09,30,7.20
2021,07,04,09,31,3.50
2021,07,04,09,32,1.90
2021,07,04,09,33,6.50
2021,07,04,09,34,6.90
2021,07,04,09,35,8.20
2021,07,04,09,36,6.80
2021,07,04,09,37,6.30
2021,07,04,09,38,7.50
2021,07,04,09,39,6.70
2021,07,04,09,40,7.40
2021,07,04,09,41,6.90
2021,07,04,09,42,8.60
2021,07,04,09,43,4.30
2021,07,04,09,44,3.60
2021,07,04,09,45,7.60
2021,07,04,09,46,6.30
2021,07,04,09,47,7.80
2021,07,04,09,48,6.20
2021,07,04,09,49,9.00
2021,07,04,09,50,5.10
2021,07,04,09,51,10.90
2021,07,04,09,52,6.80
2021,07,04,09,53,10.80
2021,07,04,09,54,8.60
2021,07,04,09,55,5.80
2021,07,04,09,56,8.40
2021,07,04,09,57,5.20
2021,07,04,09,58,5.80
2021,07,04,09,59,7.80
2021,07,04,10,00,4.60
2021,07,04,10,01,3.90
2021,07,04,10,02,3.40
2021,07,04,10,03,5.60
2021,07,04,10,04,8.70
2021,07,04,10,05,6.40
2021,07,04,10,06,6.20
2021,07,04,10,07,8.50
2021,07,04,10,08,9.90
2021,07,04,10,09,6.20
2021,07,04,10,10,8.40
2021,07,04,10,11,9.80
2021,07,04,10,12,7.10
2021,07,04,10,13,7.40
2021,07,04,10,14,8.00
2021,07,04,10,15,4.80
2021,07,04,10,16,3.60
2021,07,04,10,17,1.60
2021,07,04,10,18,4.10
2021,07,04,10,19,6.20
2021,07,04,10,20,9.10
2021,07,04,10,21,4.70
2021,07,04,10,22,7.70
2021,07,04,10,23,9.40
2021,07,04,10,24,5.10
2021,07,04,10,25,3.10
2021,07,04,10,26,2.30
2021,07,04,10,27,7.40
2021,07,04,10,28,5.40
2021,07,04,10,29,3.70
2021,07,04,10,30,4.60
2021,07,04,10,31,4.00
2021,07,04,10,32,5.60
2021,07,04,10,33,8.10
2021,07,04,10,34,4.40
2021,07,04,10,35,6.10
2021,07,04,10,36,5.80
2021,07,04,10,37,2.20
2021,07,04,10,38,5.10
2021,07,04,10,39,9.70
2021,07,04,10,40,9.70
2021,07,04,10,41,8.00
2021,07,04,10,42,8.50
2021,07,04,10,43,5.60
2021,07,04,10,44,1.70
2021,07,04,10,45,8.30
2021,07,04,10,46,5.40
2021,07,04,10,47,4.90
2021,07,04,10,48,7.70
2021,07,04,10,49,4.50
2021,07,04,10,50,0.60
2021,07,04,10,51,2.30
2021,07,04,10,52,1.00
2021,07,04,10,53,3.50
2021,07,04,10,54,6.70
2021,07,04,10,55,8.10
2021,07,04,10,56,5.50
2021,07,04,10,57,9.00
2021,07,04,10,58,5.50
2021,07,04,10,59,6.90
2021,07,04,11,00,5.20
2021,07,04,11,01,4.20
2021,07,04,11,02,6.10
2021,07,04,11,03,6.40
2021,07,04,11,04,4.90
2021,07,04,11,05,7.30
2021,07,04,11,06,6.40
2021,07,04,11,07,6.10
2021,07,04,11,08,5.60
2021,07,04,11,09,3.80
2021,07,04,11,10,7.80
2021,07,04,11,11,6.10
2021,07,04,11,12,5.40
2021,07,04,11,13,9.40
2021,07,04,11,14,9.30
2021,07,04,11,15,10.10
2021,07,04,11,16,10.10
2021,07,04,11,17,10.20
2021,07,04,11,18,8.30
2021,07,04,11,19,10.30
2021,07,04,11,20,10.60
2021,07,04,11,21,7.50
2021,07,04,11,22,5.50
2021,07,04,11,23,6.20
2021,07,04,11,24,11.20
2021,07,04,11,25,9.20
2021,07,04,11,26,11.00
2021,07,04,11,27,11.00
2021,07,04,11,28,8.70
2021,07,04,11,29,14.70
2021,07,04,11,30,12.50
2021,07,04,11,31,12.50
2021,07,04,11,32,14.30
2021,07,04,11,33,12.90
2021,07,04,11,34,6.90
2021,07,04,11,35,8.90
2021,07,04,11,36,8.80
2021,07,04,11,37,8.20
2021,07,04,11,38,8.00
2021,07,04,11,39,3.90
2021,07,04,11,40,4.70
2021,07,04,11,41,7.10
2021,07,04,11,42,8.80
2021,07,04,11,43,7.50
2021,07,04,11,44,10.50
2021,07,04,11,45,8.50
2021,07,04,11,46,8.60
2021,07,04,11,47,8.40
2021,07,04,11,48,7.30
2021,07,04,11,49,8.60
2021,07,04,11,50,11.70
2021,07,04,11,51,9.90
2021,07,04,11,52,12.10
2021,07,04,11,53,10.20
2021,07,04,11,54,11.60
2021,07,04,11,55,13.70
2021,07,04,11,56,12.40
2021,07,04,11,57,11.50
2021,07,04,11,58,9.30
2021,07,04,11,59,13.10
2021,07,04,12,00,6.00
2021,07,04,12,01,6.60
2021,07,04,12,02,6.40
2021,07,04,12,03,7.40
2021,07,04,12,04,8.50
2021,07,04,12,05,11.70
2021,07,04,12,06,9.00
2021,07,04,12,07,8.50
2021,07,04,12,08,8.70
2021,07,04,12,09,10.30
2021,07,04,12,10,8.50
2021,07,04,12,11,9.60
2021,07,04,12,12,8.50
2021,07,04,12,13,11.30
2021,07,04,12,14,6.80
2021,07,04,12,15,8.60
2021,07,04,12,16,8.10
2021,07,04,12,17,8.30
2021,07,04,12,18,2.00
2021,07,04,12,19,3.10
2021,07,04,12,20,0.40
2021,07,04,12,21,3.40
2021,07,04,12,22,4.40
2021,07,04,12,23,9.30
2021,07,04,12,24,7.20
2021,07,04,12,25,12.10
2021,07,04,12,26,12.50
2021,07,04,12,27,2.70
2021,07,04,12,28,7.80
2021,07,04,12,29,8.20
2021,07,04,12,30,5.00
2021,07,04,12,31,3.60
2021,07,04,12,32,6.00
2021,07,04,12,33,7.90
2021,07,04,12,34,7.10
2021,07,04,12,35,8.00
2021,07,04,12,36,10.50
2021,07,04,12,37,7.30
2021,07,04,12,38,6.50
2021,07,04,12,39,3.40
2021,07,04,12,40,5.10
2021,07,04,12,41,5.80
2021,07,04,12,42,6.40
2021,07,04,12,43,6.30
2021,07,04,12,44,4.80
2021,07,04,12,45,9.70
2021,07,04,12,46,7.60
2021,07,04,12,47,4.30
2021,07,04,12,48,12.00
2021,07,04,12,49,6.80
2021,07,04,12,50,8.10
2021,07,04,12,51,7.20
2021,07,04,12,52,6.90
2021,07,04,12,53,7.00
2021,07,04,12,54,5.00
2021,07,04,12,55,9.60
2021,07,04,12,56,7.00
2021,07,04,12,57,5.80
2021,07,04,12,58,5.50
2021,07,04,12,59,10.00
2021,07,04,13,00,6.60
2021,07,04,13,01,5.10
2021,07,04,13,02,8.00
2021,07,04,13,03,8.50
2021,07,04,13,04,6.50
2021,07,04,13,05,3.50
2021,07,04,13,06,6.40
2021,07,04,13,07,6.90
2021,07,04,13,08,10.50
2021,07,04,13,09,8.30
2021,07,04,13,10,8.50
2021,07,04,13,11,6.80
2021,07,04,13,12,7.60
2021,07,04,13,13,9.00
2021,07,04,13,14,7.20
2021,07,04,13,15,11.30
2021,07,04,13,16,9.70
2021,07,04,13,17,6.90
2021,07,04,13,18,5.80
2021,07,04,13,19,2.50
2021,07,04,13,20,9.50
2021,07,04,13,21,11.10
2021,07,04,13,22,8.20
2021,07,04,13,23,5.40
2021,07,04,13,24,7.10
2021,07,04,13,25,7.40
2021,07,04,13,26,7.20
2021,07,04,13,27,8.90
2021,07,04,13,28,9.20
2021,07,04,13,29,7.60
2021,07,04,13,30,3.00
2021,07,04,13,31,10.60
2021,07,04,13,32,13.40
2021,07,04,13,33,10.90
2021,07,04,13,34,7.60
2021,07,04,13,35,8.10
2021,07,04,13,36,3.80
2021,07,04,13,37,5.60
2021,07,04,13,38,3.80
2021,07,04,13,39,12.30
2021,07,04,13,40,11.60
2021,07,04,13,41,11.10
2021,07,04,13,42,12.10
2021,07,04,13,43,10.30
2021,07,04,13,44,12.70
2021,07,04,13,45,12.80
2021,07,04,13,46,11.60
2021,07,04,13,47,7.60
2021,07,04,13,48,7.10
2021,07,04,13,49,15.10
2021,07,04,13,50,9.40
2021,07,04,13,51,8.80
2021,07,04,13,52,11.50
2021,07,04,13,53,11.00
2021,07,04,13,54,8.70
2021,07,04,13,55,8.90
2021,07,04,13,56,8.80
2021,07,04,13,57,9.70
2021,07,04,13,58,8.70
2021,07,04,13,59,9.00
2021,07,04,14,00,14.10
2021,07,04,14,01,12.50
2021,07,04,14,02,13.40
2021,07,04,14,03,15.90
2021,07,04,14,04,12.10
2021,07,04,14,05,10.10
2021,07,04,14,06,11.00
2021,07,04,14,07,14.20
2021,07,04,14,08,12.60
2021,07,04,14,09,14.80
2021,07,04,14,10,14.40
2021,07,04,14,11,10.60
2021,07,04,14,12,7.10
2021,07,04,14,13,4.00
2021,07,04,14,14,9.70
2021,07,04,14,15,7.50
2021,07,04,14,16,5.00
2021,07,04,14,17,6.40
2021,07,04,14,18,11.10
2021,07,04,14,19,13.30
2021,07,04,14,20,11.50
2021,07,04,14,21,8.30
2021,07,04,14,22,10.40
2021,07,04,14,23,13.90
2021,07,04,14,24,11.80
2021,07,04,14,25,9.00
2021,07,04,14,26,9.50
2021,07,04,14,27,9.10
2021,07,04,14,28,9.40
2021,07,04,14,29,7.60
2021,07,04,14,30,8.20
2021,07,04,14,31,14.10
2021,07,04,14,32,9.90
2021,07,04,14,33,13.90
2021,07,04,14,34,10.60
2021,07,04,14,35,12.20
2021,07,04,14,36,11.50
2021,07,04,14,37,7.30
2021,07,04,14,38,9.00
2021,07,04,14,39,6.50
2021,07,04,14,40,11.70
2021,07,04,14,41,13.70
2021,07,04,14,42,6.50
2021,07,04,14,43,7.20
2021,07,04,14,44,5.60
2021,07,04,14,45,8.90
2021,07,04,14,46,9.60
2021,07,04,14,47,6.90
2021,07,04,14,48,9.70
2021,07,04,14,49,7.90
2021,07,04,14,50,7.60
2021,07,04,14,51,12.10
2021,07,04,14,52,9.00
2021,07,04,14,53,13.20
2021,07,04,14,54,7.50
2021,07,04,14,55,6.10
2021,07,04,14,56,13.00
2021,07,04,14,57,8.50
2021,07,04,14,58,9.10
2021,07,04,14,59,9.40
2021,07,04,15,00,10.70
2021,07,04,15,01,10.40
2021,07,04,15,02,7.10
2021,07,04,15,03,7.60
2021,07,04,15,04,6.40
2021,07,04,15,05,6.80
2021,07,04,15,06,8.00
2021,07,04,15,07,6.60
2021,07,04,15,08,7.70
2021,07,04,15,09,9.20
2021,07,04,15,10,9.70
2021,07,04,15,11,6.70
2021,07,04,15,12,4.70
2021,07,04,15,13,7.40
2021,07,04,15,14,14.70
2021,07,04,15,15,12.50
2021,07,04,15,16,14.60
2021,07,04,15,17,13.20
2021,07,04,15,18,6.90
2021,07,04,15,19,13.30
2021,07,04,15,20,7.60
2021,07,04,15,21,12.70
2021,07,04,15,22,8.60
2021,07,04,15,23,12.60
2021,07,04,15,24,11.60
2021,07,04,15,25,0.60
2021,07,04,15,26,7.80
2021,07,04,15,27,9.60
2021,07,04,15,28,10.60
2021,07,04,15,29,0.60
2021,07,04,15,30,4.20
2021,07,04,15,31,14.20
2021,07,04,15,32,12.50
2021,07,04,15,33,15.50
2021,07,04,15,34,19.10
2021,07,04,15,35,11.60
2021,07,04,15,36,6.30
2021,07,04,15,37,11.60
2021,07,04,15,38,9.50
2021,07,04,15,39,9.90
2021,07,04,15,40,7.80
2021,07,04,15,41,7.50
2021,07,04,15,42,7.00
2021,07,04,15,43,10.20
2021,07,04,15,44,12.70
2021,07,04,15,45,16.50
2021,07,04,15,46,12.90
2021,07,04,15,47,14.80
2021,07,04,15,48,11.00
2021,07,04,15,49,8.10
2021,07,04,15,50,17.10
2021,07,04,15,51,17.40
2021,07,04,15,52,12.10
2021,07,04,15,53,9.90
2021,07,04,15,54,15.10
2021,07,04,15,55,18.00
2021,07,04,15,56,12.10
2021,07,04,15,57,11.80
2021,07,04,15,58,9.60
2021,07,04,15,59,8.80
2021,07,04,16,00,13.40
2021,07,04,16,01,8.90
2021,07,04,16,02,10.80
2021,07,04,16,03,11.30
2021,07,04,16,04,3.50
2021,07,04,16,05,9.10
2021,07,04,16,06,4.70
2021,07,04,16,07,8.10
2021,07,04,16,08,4.70
2021,07,04,16,09,9.30
2021,07,04,16,10,9.00
2021,07,04,16,11,4.80
2021,07,04,16,12,8.90
2021,07,04,16,13,9.20
2021,07,04,16,14,17.30
2021,07,04,16,15,7.70
2021,07,04,16,16,4.80
2021,07,04,16,17,6.50
2021,07,04,16,18,14.80
2021,07,04,16,19,19.30
2021,07,04,16,20,6.40
2021,07,04,16,21,7.20
2021,07,04,16,22,11.90
2021,07,04,16,23,14.00
2021,07,04,16,24,15.90
2021,07,04,16,25,11.60
2021,07,04,16,26,7.90
2021,07,04,16,27,9.80
2021,07,04,16,28,13.30
2021,07,04,16,29,19.30
2021,07,04,16,30,13.60
2021,07,04,16,31,12.30
2021,07,04,16,32,11.80
2021,07,04,16,33,10.50
2021,07,04,16,34,14.00
2021,07,04,16,35,7.50
2021,07,04,16,36,17.80
2021,07,04,16,37,11.50
2021,07,04,16,38,3.70
2021,07,04,16,39,2.80
2021,07,04,16,40,4.10
2021,07,04,16,41,13.10
2021,07,04,16,42,12.60
2021,07,04,16,43,10.10
2021,07,04,16,44,8.70
2021,07,04,16,45,11.30
2021,07,04,16,46,16.40
2021,07,04,16,47,20.40
2021,07,04,16,48,15.40
2021,07,04,16,49,17.20
2021,07,04,16,50,14.10
2021,07,04,16,51,14.90
2021,07,04,16,52,19.30
2021,07,04,16,53,12.50
2021,07,04,16,54,10.00
2021,07,04,16,55,13.40
2021,07,04,16,56,7.20
2021,07,04,16,57,5.80
2021,07,04,16,58,9.90
2021,07,04,16,59,9.70
2021,07,04,17,00,19.00
2021,07,04,17,01,18.50
2021,07,04,17,02,18.10
2021,07,04,17,03,18.60
2021,07,04,17,04,14.30
2021,07,04,17,05,5.20
2021,07,04,17,06,10.90
2021,07,04,17,07,0.70
2021,07,04,17,08,1.10
2021,07,04,17,09,7.50
2021,07,04,17,10,5.00
2021,07,04,17,11,14.60
2021,07,04,17,12,1.00
2021,07,04,17,13,5.50
2021,07,04,17,14,1.10
2021,07,04,17,15,1.10
2021,07,04,17,16,1.10
2021,07,04,17,17,3.40
2021,07,04,17,18,6.30
2021,07,04,17,19,4.80
2021,07,04,17,20,6.50
2021,07,04,17,21,0.40
2021,07,04,17,22,9.20
2021,07,04,17,23,4.50
2021,07,04,17,24,6.70
2021,07,04,17,25,3.60
2021,07,04,17,26,7.30
2021,07,04,17,27,6.70
2021,07,04,17,28,8.50
2021,07,04,17,29,18.00
2021,07,04,17,30,11.20
2021,07,04,17,31,6.60
2021,07,04,17,32,7.80
2021,07,04,17,33,6.40
2021,07,04,17,34,8.40
2021,07,04,17,35,4.20
2021,07,04,17,36,2.00
2021,07,04,17,37,7.40
2021,07,04,17,38,7.00
2021,07,04,17,39,6.90
2021,07,04,17,40,7.10
2021,07,04,17,41,3.90
2021,07,04,17,42,4.90
2021,07,04,17,43,8.40
2021,07,04,17,44,6.10
2021,07,04,17,45,5.30
2021,07,04,17,46,12.20
2021,07,04,17,47,8.00
2021,07,04,17,48,3.10
2021,07,04,17,49,5.40
2021,07,04,17,50,4.30
2021,07,04,17,51,4.80
2021,07,04,17,52,8.50
2021,07,04,17,53,5.90
2021,07,04,17,54,3.70
2021,07,04,17,55,10.20
2021,07,04,17,56,7.70
2021,07,04,17,57,4.80
2021,07,04,17,58,8.10
2021,07,04,17,59,6.40